Location: Aranbee
(34.0885°N, 118.2342°W)
Time: 09:46:01
(UTC+00:00)

Courier 1B Rocket - Pass Details

Date: 01 December 2020
Orbit: 920 x 1202 km, 28.2° (Epoch: 27 January)

Event Time Altitude Azimuth Distance (km) Brightness Sun altitude
Rises 18:14:55 0° 267° (W) 4,037 8.0 30.2°
Reaches altitude 10° 18:18:41 10° 251° (WSW) 3,032 7.6 30.5°
Maximum altitude 18:23:40 19° 209° (SSW) 2,350 7.8 30.9°
Drops below altitude 10° 18:28:27 10° 166° (SSE) 2,891 9.0 31.3°
Sets 18:31:57 0° 149° (SSE) 3,788 9.2 31.5°
